Home > Weather > Saint John's > Past weeks

Flag for Antigua and Barbuda Past Weather in Saint John's, Antigua and Barbuda — Yesterday and Last 2 Weeks

Now
84 °F

Scattered clouds.


Feels Like: 92 °F
Forecast: 79 / 86 °F
Wind: 10 mph from East

Location: Vc Bird International Antigua Airport

Current Time: May 28, 2016 at 12:20:45 PM

Latest Report: May 28, 2016 at 12:00 PM


Visibility: N/A

Pressure: 30.04 "Hg

Humidity: 74%

Dew Point: 75 °F

Location of Saint John'sLocation

Past Weather in Saint John's — Graph

°F

Saint John's Temperature Yesterday

Maximum temperature yesterday: 86 °F (at 11:00 AM)
Minimum temperature yesterday: 75 °F (at 5:00 AM)
Average temperature yesterday: 81 °F

High & Low Weather Summary for the Past Weeks

 TemperatureHumidityPressure
High86 °F (May 15, 3:00 PM)94% (May 27, 5:00 AM)30.12 "Hg (May 27, 5:00 AM)
Low75 °F (May 16, 4:00 AM)55% (May 25, 1:00 PM)29.92 "Hg (May 26, 4:00 PM)
Average82 °F75%30.03 "Hg
* Reported May 13 11:00 AM — May 28 11:00 AM, Saint John's, Weather by CustomWeather, © 2016

Note: Actual official high and low records may vary slightly from our data, if they occured in-between our weather recording intervals... More about our weather records

Advertising

Saint John's Weather History for the Previous 24 Hours

Scroll right to see more
 ConditionsComfort  
Time TempWeatherWind HumidityBarometerVisibility
11:00 AM
Sat, May 28
84 °FScattered clouds.10 mph74%30.04 "HgN/A
10:00 AM84 °FScattered clouds.12 mph70%30.04 "HgN/A
9:00 AM82 °FScattered clouds.10 mph79%30.04 "HgN/A
8:00 AM82 °FPassing clouds.10 mph74%30.01 "HgN/A
7:00 AM82 °FPartly sunny.9 mph79%30.01 "HgN/A
6:00 AM81 °FBroken clouds.10 mph79%29.98 "HgN/A
5:00 AM81 °FPassing clouds.10 mph84%29.98 "HgN/A
4:00 AM81 °FPassing clouds.10 mph79%29.95 "HgN/A
3:00 AM81 °FPassing clouds.10 mph79%29.95 "HgN/A
2:00 AM81 °FPassing clouds.12 mph79%29.95 "HgN/A
1:00 AM81 °FPassing clouds.13 mph84%29.98 "HgN/A
12:00 AM81 °FPassing clouds.10 mph79%29.98 "HgN/A
11:00 PM
Fri, May 27
81 °FPassing clouds.9 mph84%30.01 "HgN/A
10:00 PM81 °FPassing clouds.10 mph79%29.98 "HgN/A
9:00 PM81 °FPassing clouds.12 mph84%29.98 "HgN/A
8:00 PM81 °FPassing clouds.10 mph79%29.98 "HgN/A
7:00 PM81 °FPassing clouds.12 mph79%29.95 "HgN/A
6:00 PM82 °FPassing clouds.10 mph74%29.95 "HgN/A
5:00 PM84 °FPassing clouds.10 mph70%29.92 "HgN/A
4:00 PM84 °FScattered clouds.13 mph70%29.92 "HgN/A
3:00 PM86 °FScattered clouds.13 mph66%29.95 "HgN/A
2:00 PM86 °FPassing clouds.13 mph66%29.95 "HgN/A
1:00 PM86 °FScattered clouds.14 mph66%29.95 "HgN/A
12:00 PM86 °FPassing clouds.13 mph66%29.98 "HgN/A
Weather by CustomWeather, © 2016

See weather overviewHow to use our weather pages